Simultaneous Nadir Overpasses (SNOs) Predictions

Prediction of SNOs between NOAA-19 and METOP-C Satellite Orbit:

Table of predicted SNOs for the next 14.0 days since TLE Epoch: 9/25/2021
Index Date (NOAA-19) Time (NOAA-19) Lat,Lon (NOAA-19) SZA (NOAA-19 ) Date (METOP-C) Time (METOP-C) Lat,Lon (METOP-C) SZA (METOP-C ) Distance(km) Time Diff (sec)
1 09/25/2021 04:46:58 -80.70, -43.64 97.15 09/25/2021 04:48:08 -80.70, -41.41 96.93 40.11 70
2 09/25/2021 05:37:59 80.66, 124.93 82.95 09/25/2021 05:38:51 80.64, 125.06 82.96 2.91 52
3 09/25/2021 06:28:54 -80.65, -67.63 97.03 09/25/2021 06:29:32 -80.64, -67.59 97.02 1.11 38
4 09/25/2021 07:19:58 80.64, 99.87 83.00 09/25/2021 07:20:12 80.65, 99.90 83.02 1.41 14
5 09/25/2021 08:10:54 -80.65, -93.04 97.00 09/25/2021 08:10:54 -80.63, -93.09 97.02 1.93 0
6 09/25/2021 09:01:58 80.64, 74.46 83.03 09/25/2021 09:01:34 80.64, 74.40 83.02 1.27 24
7 09/25/2021 09:52:53 -80.63,-118.10 96.95 09/25/2021 09:52:15 -80.64,-118.25 96.97 2.97 38
8 09/25/2021 10:43:58 80.64, 49.05 83.07 09/25/2021 10:42:56 80.63, 48.89 83.03 2.82 62
9 09/25/2021 11:34:48 -80.56,-141.76 96.82 09/25/2021 11:33:41 -80.54,-145.08 97.15 60.68 67
10 10/06/2021 08:32:31 80.66, 81.65 87.35 10/06/2021 08:33:25 80.67, 81.76 87.39 2.11 54
11 10/06/2021 09:23:26 -80.66,-111.17 92.65 10/06/2021 09:24:07 -80.66,-110.99 92.62 3.31 41
12 10/06/2021 10:14:31 80.66, 56.23 87.38 10/06/2021 10:14:47 80.66, 56.25 87.39 0.41 16
13 10/06/2021 11:05:26 -80.66,-136.59 92.62 10/06/2021 11:05:29 -80.65,-136.49 92.61 2.06 3
14 10/06/2021 11:56:31 80.65, 30.81 87.41 10/06/2021 11:56:09 80.64, 30.75 87.39 1.56 22
15 10/06/2021 12:47:26 -80.66,-162.01 92.58 10/06/2021 12:46:51 -80.64,-161.99 92.61 1.92 35
16 10/06/2021 13:38:31 80.65, 5.40 87.45 10/06/2021 13:37:31 80.63, 5.25 87.40 3.35 60



Historial Predications of SNOs between NOAA-19 and METOP-C
